TimePDT,TemperatureF,Dew PointF,Humidity,Sea Level PressureIn,VisibilityMPH,Wind Direction,Wind SpeedMPH,Gust SpeedMPH,PrecipitationIn,Events,Conditions,WindDirDegrees,DateUTC
12:55 AM,59.0,57.9,96,29.85,0.2,Calm,Calm,-,N/A,Fog,Fog,0,2012-10-03 07:55:00
1:55 AM,60.1,60.1,100,29.86,0.2,Calm,Calm,-,N/A,Fog,Fog,0,2012-10-03 08:55:00
2:55 AM,60.1,60.1,100,29.86,0.2,Calm,Calm,-,N/A,Fog,Fog,0,2012-10-03 09:55:00
3:55 AM,60.1,60.1,100,29.86,0.2,SSW,3.5,-,N/A,Fog,Fog,210,2012-10-03 10:55:00
4:55 AM,59.0,59.0,100,29.87,0.2,Calm,Calm,-,N/A,Fog,Fog,0,2012-10-03 11:55:00
5:55 AM,59.0,59.0,100,29.88,0.2,Calm,Calm,-,N/A,Fog,Fog,0,2012-10-03 12:55:00
6:55 AM,59.0,57.9,96,29.90,0.2,SW,5.8,-,N/A,Fog,Fog,230,2012-10-03 13:55:00
7:17 AM,57.2,57.2,100,29.94,0.5,SW,6.9,-,N/A,Fog,Fog,230,2012-10-03 14:17:00
7:42 AM,59.0,57.2,94,29.94,1.8,SSW,6.9,-,N/A,,Overcast,210,2012-10-03 14:42:00
7:55 AM,57.9,57.9,100,29.92,2.0,SW,3.5,-,N/A,,Overcast,230,2012-10-03 14:55:00
8:17 AM,59.0,59.0,100,29.95,2.5,SW,5.8,-,N/A,,Overcast,220,2012-10-03 15:17:00
8:38 AM,59.0,59.0,100,29.96,3.0,WSW,6.9,-,N/A,,Overcast,250,2012-10-03 15:38:00
8:55 AM,60.1,57.9,93,29.94,3.0,West,4.6,-,N/A,,Overcast,280,2012-10-03 15:55:00
9:55 AM,60.1,59.0,96,29.96,4.0,Calm,Calm,-,N/A,,Overcast,0,2012-10-03 16:55:00
10:55 AM,64.0,59.0,84,29.96,6.0,WSW,6.9,-,N/A,,Mostly Cloudy,240,2012-10-03 17:55:00
11:32 AM,64.4,59.0,83,29.99,7.0,West,10.4,-,N/A,,Mostly Cloudy,260,2012-10-03 18:32:00
11:55 AM,64.9,57.9,78,29.97,10.0,West,11.5,-,N/A,,Mostly Cloudy,260,2012-10-03 18:55:00
12:31 PM,66.2,57.2,73,29.99,10.0,WSW,12.7,-,N/A,,Mostly Cloudy,240,2012-10-03 19:31:00
12:43 PM,66.2,57.2,73,29.99,10.0,WSW,12.7,-,N/A,,Mostly Cloudy,250,2012-10-03 19:43:00
12:55 PM,66.0,57.0,73,29.96,10.0,WSW,11.5,20.7,N/A,,Mostly Cloudy,250,2012-10-03 19:55:00
1:55 PM,66.0,57.0,73,29.95,10.0,West,13.8,20.7,N/A,,Mostly Cloudy,260,2012-10-03 20:55:00
2:55 PM,66.0,55.9,70,29.95,10.0,WSW,11.5,18.4,N/A,,Mostly Cloudy,250,2012-10-03 21:55:00
3:55 PM,66.0,57.0,73,29.95,10.0,West,11.5,16.1,N/A,,Mostly Cloudy,260,2012-10-03 22:55:00
4:55 PM,63.0,55.0,75,29.96,6.0,WSW,10.4,-,N/A,,Mostly Cloudy,240,2012-10-03 23:55:00
5:09 PM,62.6,55.4,77,29.99,10.0,West,9.2,-,N/A,,Mostly Cloudy,260,2012-10-04 00:09:00
5:55 PM,62.1,55.9,80,29.96,10.0,WSW,6.9,-,N/A,,Overcast,250,2012-10-04 00:55:00
6:55 PM,61.0,55.9,83,29.98,10.0,WSW,3.5,-,N/A,,Overcast,250,2012-10-04 01:55:00
7:12 PM,60.8,55.4,82,30.00,10.0,West,4.6,-,N/A,,Overcast,270,2012-10-04 02:12:00
7:55 PM,61.0,55.9,83,29.99,10.0,Calm,Calm,-,N/A,,Overcast,0,2012-10-04 02:55:00
8:55 PM,61.0,55.9,83,30.00,10.0,Calm,Calm,-,N/A,,Overcast,0,2012-10-04 03:55:00
9:55 PM,61.0,55.9,83,30.02,10.0,Calm,Calm,-,N/A,,Overcast,0,2012-10-04 04:55:00
10:55 PM,61.0,55.9,83,30.02,10.0,Calm,Calm,-,N/A,,Overcast,0,2012-10-04 05:55:00
11:55 PM,60.1,55.9,86,30.03,10.0,SW,3.5,-,N/A,,Overcast,230,2012-10-04 06:55:00